Tracking 18840 objects as of 19-November-2017
HD Live streaming from Space Station
objects crossing your sky now

ERS 2 DEB

Track ERS 2 DEB now!
10-day predictions


NORAD ID: 35393
Int'l Code: 1995-021G
Perigee: 757.4 km
Apogee: 766.3 km
Inclination: 98.2 °
Period: 99.9 minutes
Semi major axis: 7132 km
RCS: 0.0072 m2 (small)
Launch date: April 21, 1995
Source: European Space Agency (ESA)
Launch site: FRENCH GUIANA (FRGUI)

Note: This is SATELLITE DEBRIS
aabbcc
Your satellite tracking list
Your tracking list is empty




NASA's NSSDC Master Catalog

Two Line Element Set (TLE):
1 35393U 95021G   17322.53060469  .00000467  00000-0  15776-3 0  9994
2 35393  98.1663 313.1200 0006205  70.8849  57.0791 14.41146927749836
Source of the keplerian elements: AFSPC